McCook, NE

6:37 AM CDT on August 21, 2017 (GMT -0500)
McCook Municipal

Weather History for KMCK - September, 2014

Change the Weather History Date:

Monday, September 29, 2014

  Actual Average Record
Temperature  
Mean Temperature 71 °F 58 °F  
Max Temperature 84 °F 73 °F 95 °F (1931)
Min Temperature 58 °F 43 °F 23 °F (1984)
Cooling Degree Days 4    
Growing Degree Days 20 (Base 50)    
Moisture  
Dew Point 54 °F    
Average Humidity 59    
Maximum Humidity 90    
Minimum Humidity 35    
Precipitation  
Precipitation 0.13 in 0.05 in 0.95 in (1965)
Month to date precipitation 1.68 1.40  
Year to date precipitation 22.63 19.11  
Sea Level Pressure  
Sea Level Pressure 29.89 in    
Wind  
Wind Speed 15 mph (SSE)    
Max Wind Speed 31 mph    
Max Gust Speed 41 mph    
Visibility 9 miles    
Events Rain , Thunderstorm    
T = Trace of Precipitation, MM = Missing Value Source: NWS Daily Summary

Daily Weather History Graph

Daily Weather History Graph

Search for Another Location

Airport or City:

Trip Planner

Search our weather history database for the weather conditions in past years. The results will help you decide how hot, cold, wet, or windy it might be!

Date:

Astronomy

Sep. 29, 2014 Rise Set
Actual Time 7:36 AM CDT 7:27 PM CDT
Civil Twilight 7:09 AM CDT 7:54 PM CDT
Nautical Twilight 6:38 AM CDT 8:26 PM CDT
Astronomical Twilight 6:06 AM CDT 8:58 PM CDT
Moon 12:50 PM CDT (9/29) 11:03 PM CDT (9/29)
Length of Visible Light 12h 45m
Length of Day
11h 51m
Waxing Crescent, 28% of the Moon is Illuminated
Sep 29
Waxing Crescent
Oct 1
First Quarter
Oct 8
Full
Oct 15
Last Quarter
Oct 23
New

Hourly Weather History & Observations

Time (CDT) Temp. Heat Index Dew Point Humidity Pressure Visibility Wind Dir Wind Speed Gust Speed Precip Events Conditions
12:53 AM 66.0 °F - 54.0 °F 65% 29.99 in 10.0 mi SSE 16.1 mph - N/A   Mostly Cloudy
1:53 AM 66.9 °F - 54.0 °F 63% 29.98 in 10.0 mi SSE 16.1 mph - N/A   Partly Cloudy
2:53 AM 64.4 °F - 53.6 °F 68% 30.05 in 10.0 mi SSE 13.8 mph - N/A   Clear
3:53 AM 63.0 °F - 53.1 °F 70% 29.98 in 10.0 mi SSE 12.7 mph - N/A   Clear
4:53 AM 61.0 °F - 53.1 °F 75% 29.97 in 10.0 mi SSE 9.2 mph - N/A   Clear
5:53 AM 60.1 °F - 53.1 °F 78% 29.97 in 10.0 mi SE 5.8 mph - N/A   Clear
6:53 AM 59.0 °F - 53.1 °F 81% 29.97 in 10.0 mi SSE 4.6 mph - N/A   Clear
7:53 AM 57.9 °F - 53.1 °F 84% 29.98 in 8.0 mi SE 5.8 mph - N/A   Clear
8:53 AM 61.0 °F - 54.0 °F 78% 30.00 in 9.0 mi East 3.5 mph - N/A   Clear
9:53 AM 68.0 °F - 55.9 °F 65% 29.99 in 10.0 mi SSE 8.1 mph - N/A   Clear
10:53 AM 75.0 °F - 57.0 °F 53% 29.97 in 10.0 mi SSE 13.8 mph - N/A   Clear
11:53 AM 80.1 °F 80.1 °F 55.0 °F 42% 29.94 in 10.0 mi SSE 17.3 mph 24.2 mph N/A   Clear
12:53 PM 82.0 °F - 52.0 °F 35% 29.91 in 10.0 mi SSE 20.7 mph 31.1 mph N/A   Partly Cloudy
1:53 PM 81.0 °F - 52.0 °F 36% 29.88 in 10.0 mi SSE 23.0 mph 31.1 mph 0.00 in Rain Light Rain
2:53 PM 82.0 °F - 52.0 °F 35% 29.85 in 10.0 mi South 20.7 mph 26.5 mph 0.00 in   Overcast
3:53 PM 81.0 °F - 52.0 °F 36% 29.83 in 10.0 mi SE 16.1 mph 28.8 mph N/A   Overcast
4:53 PM 81.0 °F - 52.0 °F 36% 29.80 in 10.0 mi SE 20.7 mph 28.8 mph N/A   Overcast
5:53 PM 80.1 °F - 52.0 °F 38% 29.77 in 10.0 mi SE 19.6 mph 28.8 mph N/A   Overcast
6:53 PM 78.1 °F - 52.0 °F 40% 29.76 in 10.0 mi SE 19.6 mph 27.6 mph N/A   Scattered Clouds
7:53 PM 75.9 °F - 52.0 °F 43% 29.76 in 10.0 mi SE 17.3 mph 26.5 mph N/A   Clear
8:53 PM 73.9 °F - 52.0 °F 46% 29.76 in 10.0 mi SE 17.3 mph - N/A   Overcast
9:53 PM 72.0 °F - 53.1 °F 51% 29.75 in 10.0 mi SE 18.4 mph 27.6 mph N/A   Clear
10:53 PM 72.0 °F - 54.0 °F 53% 29.76 in 10.0 mi SSE 23.0 mph 32.2 mph N/A   Mostly Cloudy
11:00 PM 71.1 °F - 53.1 °F 53% 29.89 in 10.0 mi SW 31.1 mph 41.4 mph N/A Thunderstorm Overcast
11:08 PM 64.9 °F - 55.0 °F 70% 29.89 in 6.0 mi WSW 21.9 mph 41.4 mph N/A Thunderstorm Haze
11:34 PM 61.0 °F - 57.0 °F 87% 29.90 in 6.0 mi SSW 9.2 mph - 0.05 in   Overcast
11:51 PM 60.8 °F - 57.2 °F 88% 29.87 in 3.0 mi South 12.7 mph 25.3 mph 0.09 in Thunderstorm Overcast
11:53 PM 60.1 °F - 57.0 °F 90% 29.80 in 3.0 mi South 10.4 mph 25.3 mph 0.09 in Thunderstorm Overcast